Location: State Camp
(41.2367°N, 77.7828°W)
Time: 04:12:38
(UTC-04:00)

HST - Visible Passes

Search period start: 21 August 2014 00:00
Search period end: 31 August 2014 00:00
Orbit: 547 x 551 km, 28.5° (Epoch: 20 August)

Date Brightness Start Highest point End Pass type
(mag) Time Alt. Az. Time Alt. Az. Time Alt. Az.
22 Aug 3.0 05:57:05 10° SSW 05:59:13 14° S 06:01:22 10° SE visible
23 Aug 2.9 05:49:56 10° SSW 05:52:10 14° S 05:54:25 10° SE visible
24 Aug 2.9 05:42:52 10° SW 05:45:07 14° S 05:47:22 10° SSE visible
25 Aug 2.9 05:36:02 10° SW 05:38:04 14° S 05:40:13 10° SSE visible
26 Aug 2.9 05:29:38 11° SSW 05:31:00 13° S 05:32:57 10° SSE visible
27 Aug 2.9 05:23:18 12° SSW 05:23:56 12° S 05:25:30 10° SSE visible
28 Aug 3.1 05:17:03 10° S 05:17:03 10° S 05:17:37 10° S visible
